Gainesville, GA

5:10 PM EDT on May 28, 2017 (GMT -0400)
Gilmer Memorial

Weather History for KGVL - April, 2013

Change the Weather History Date:

Friday, April 19, 2013

  Actual Average Record
Temperature  
Mean Temperature 57 °F 61 °F  
Max Temperature 68 °F 72 °F 87 °F (1955)
Min Temperature 45 °F 51 °F 28 °F (1983)
Degree Days  
Heating Degree Days 8 5  
Month to date heating degree days 98 132  
Since 1 July heating degree days 124 2984  
Cooling Degree Days 0 1  
Month to date cooling degree days 31 17  
Year to date cooling degree days 31 22  
Growing Degree Days 8 (Base 50)    
Moisture  
Dew Point 55 °F    
Average Humidity 79    
Maximum Humidity 93    
Minimum Humidity 65    
Precipitation  
Precipitation 0.52 in 0.12 in 3.77 in (1943)
Month to date precipitation 3.17 2.17  
Year to date precipitation 3.88 17.49  
Snow  
Snow 0.00 in - - ()
Month to date snowfall 0.0  
Since 1 July snowfall 0.0  
Snow Depth 0.00 in    
Sea Level Pressure  
Sea Level Pressure 29.88 in    
Wind  
Wind Speed 10 mph (SW)    
Max Wind Speed 28 mph    
Max Gust Speed 37 mph    
Visibility 8 miles    
Events Rain    
T = Trace of Precipitation, MM = Missing Value Source: NWS Daily Summary

Daily Weather History Graph

Daily Weather History Graph

Search for Another Location

Airport or City:

Trip Planner

Search our weather history database for the weather conditions in past years. The results will help you decide how hot, cold, wet, or windy it might be!

Date:

Astronomy

Apr. 19, 2013 Rise Set
Actual Time 6:58 AM EDT 8:10 PM EDT
Civil Twilight 6:32 AM EDT 8:36 PM EDT
Nautical Twilight 6:01 AM EDT 9:07 PM EDT
Astronomical Twilight 5:29 AM EDT 9:39 PM EDT
Moon 2:09 PM EDT (4/19) 2:57 AM EDT (4/19)
Length of Visible Light 14h 03m
Length of Day
13h 11m
First Quarter, 61% of the Moon is Illuminated
Apr 19
First Quarter
Apr 25
Full
May 2
Last Quarter
May 9
New
May 18
First Quarter

Hourly Weather History & Observations

Time (EDT) Temp. Dew Point Humidity Pressure Visibility Wind Dir Wind Speed Gust Speed Precip Events Conditions
12:53 AM 68.0 °F 61.0 °F 78% 29.92 in 10.0 mi SSE 8.1 mph 17.3 mph N/A   Scattered Clouds
1:18 AM 68.0 °F 62.6 °F 83% 29.95 in 10.0 mi SSE 6.9 mph - N/A   Mostly Cloudy
1:53 AM 66.9 °F 62.1 °F 84% 29.90 in 10.0 mi SSE 6.9 mph - N/A   Overcast
2:26 AM 66.2 °F 62.6 °F 88% 29.93 in 10.0 mi SSE 8.1 mph - N/A   Mostly Cloudy
2:53 AM 66.9 °F 62.1 °F 84% 29.88 in 10.0 mi SSE 8.1 mph - N/A   Overcast
3:48 AM 66.2 °F 62.6 °F 88% 29.89 in 10.0 mi SSE 6.9 mph - N/A   Overcast
3:53 AM 66.0 °F 62.1 °F 87% 29.86 in 10.0 mi SSE 8.1 mph - N/A   Overcast
4:06 AM 66.2 °F 62.6 °F 88% 29.89 in 10.0 mi SSE 5.8 mph - N/A   Overcast
4:17 AM 66.2 °F 62.6 °F 88% 29.88 in 10.0 mi SSE 8.1 mph - N/A   Mostly Cloudy
4:53 AM 64.9 °F 62.1 °F 90% 29.83 in 10.0 mi SE 6.9 mph - N/A   Partly Cloudy
5:10 AM 64.4 °F 62.6 °F 94% 29.87 in 10.0 mi SSE 8.1 mph - N/A   Mostly Cloudy
5:53 AM 66.0 °F 61.0 °F 84% 29.83 in 10.0 mi SSE 8.1 mph - N/A   Overcast
6:27 AM 66.2 °F 60.8 °F 83% 29.87 in 10.0 mi South 10.4 mph 16.1 mph N/A   Overcast
6:53 AM 66.0 °F 61.0 °F 84% 29.84 in 10.0 mi South 6.9 mph - N/A   Overcast
7:23 AM 66.2 °F 60.8 °F 83% 29.89 in 10.0 mi South 8.1 mph - N/A   Overcast
7:36 AM 66.2 °F 60.8 °F 83% 29.90 in 10.0 mi South 9.2 mph - N/A   Overcast
7:53 AM 66.0 °F 61.0 °F 84% 29.86 in 10.0 mi South 8.1 mph 17.3 mph N/A   Overcast
8:22 AM 66.2 °F 60.8 °F 83% 29.89 in 10.0 mi South 9.2 mph 17.3 mph N/A   Overcast
8:53 AM 66.9 °F 61.0 °F 81% 29.83 in 10.0 mi South 9.2 mph 18.4 mph N/A   Overcast
9:53 AM 66.9 °F 63.0 °F 87% 29.81 in 10.0 mi South 8.1 mph - 0.00 in   Overcast
10:53 AM 68.0 °F 63.0 °F 84% 29.79 in 9.0 mi South 9.2 mph 17.3 mph 0.00 in Rain Light Rain
11:34 AM 66.2 °F 62.6 °F 88% 29.84 in 2.5 mi WSW 13.8 mph 36.8 mph 0.08 in Rain Rain
11:37 AM 64.4 °F 62.6 °F 94% 29.83 in 2.0 mi WSW 10.4 mph 36.8 mph 0.09 in Rain Rain
11:43 AM 62.6 °F 60.8 °F 94% 29.86 in 1.0 mi West 21.9 mph 32.2 mph 0.18 in Rain Heavy Rain
11:53 AM 59.0 °F 55.9 °F 90% 29.85 in 1.0 mi West 15.0 mph 35.7 mph 0.27 in Rain Heavy Rain
11:55 AM 59.0 °F 55.4 °F 88% 29.88 in 1.2 mi West 16.1 mph 28.8 mph 0.00 in Rain Heavy Rain
11:59 AM 57.2 °F 55.4 °F 94% 29.89 in 2.5 mi West 16.1 mph 26.5 mph 0.00 in Rain Light Rain
12:06 PM 57.2 °F 53.6 °F 88% 29.88 in 8.0 mi West 18.4 mph 26.5 mph 0.01 in Rain Light Rain
12:12 PM 57.2 °F 53.6 °F 88% 29.88 in 6.0 mi West 15.0 mph 25.3 mph 0.02 in Rain Light Rain
12:43 PM 57.2 °F 53.6 °F 88% 29.89 in 4.0 mi West 12.7 mph - 0.09 in Rain Rain
12:53 PM 55.9 °F 54.0 °F 93% 29.86 in 4.0 mi WNW 12.7 mph 17.3 mph 0.11 in Rain Rain
1:09 PM 55.4 °F 51.8 °F 88% 29.88 in 6.0 mi West 12.7 mph 21.9 mph 0.03 in Rain Light Rain
1:25 PM 53.6 °F 51.8 °F 94% 29.89 in 8.0 mi WNW 13.8 mph 20.7 mph 0.04 in Rain Light Rain
1:53 PM 52.0 °F 48.9 °F 89% 29.89 in 8.0 mi West 15.0 mph 23.0 mph 0.09 in Rain Light Rain
2:37 PM 51.8 °F 50.0 °F 94% 29.91 in 10.0 mi West 9.2 mph - 0.04 in Rain Light Rain
2:45 PM 51.8 °F 50.0 °F 94% 29.89 in 10.0 mi West 11.5 mph - 0.04 in Rain Light Rain
2:53 PM 52.0 °F 48.9 °F 89% 29.86 in 10.0 mi West 9.2 mph - 0.04 in Rain Light Rain
3:08 PM 51.8 °F 48.2 °F 88% 29.90 in 10.0 mi West 12.7 mph 16.1 mph 0.00 in Rain Light Rain
3:48 PM 51.8 °F 48.2 °F 88% 29.89 in 10.0 mi West 12.7 mph - 0.00 in   Mostly Cloudy
3:53 PM 52.0 °F 46.9 °F 83% 29.88 in 10.0 mi WSW 12.7 mph 20.7 mph 0.00 in   Mostly Cloudy
4:53 PM 51.1 °F 46.0 °F 83% 29.91 in 10.0 mi West 12.7 mph - N/A   Mostly Cloudy
5:35 PM 50.0 °F 46.4 °F 87% 29.91 in 10.0 mi WSW 10.4 mph 17.3 mph 0.01 in Rain Light Rain
5:53 PM 50.0 °F 45.0 °F 83% 29.88 in 10.0 mi West 10.4 mph - 0.01 in   Mostly Cloudy
6:53 PM 50.0 °F 45.0 °F 83% 29.90 in 10.0 mi West 13.8 mph - N/A   Partly Cloudy
7:53 PM 50.0 °F 42.1 °F 74% 29.88 in 10.0 mi West 11.5 mph - N/A   Clear
8:53 PM 48.9 °F 39.9 °F 71% 29.92 in 10.0 mi West 13.8 mph 20.7 mph N/A   Clear
9:53 PM 48.0 °F 39.0 °F 71% 29.97 in 10.0 mi West 11.5 mph 18.4 mph N/A   Clear
10:53 PM 48.0 °F 37.0 °F 66% 29.99 in 10.0 mi WNW 9.2 mph 17.3 mph N/A   Clear
11:53 PM 46.9 °F 36.0 °F 66% 30.01 in 10.0 mi NW 8.1 mph - N/A   Clear